Find Starlink 3146

NORAD ID: 49414 Int'l Des: 2021-104 Owner: SPXS Country: US Constellation: starlink operational
LEOCIRCULAR

实时位置

正在加载3D地球...

关于 Starlink 3146

正在加载描述...

即将过境

Passes for default location (London). Set your location on the main map for personalized predictions.

高度历史

Loading altitude history...

两行轨道根数

1 49414U 21104G 26124.88719372 -.00000521 00000-0 -14650-4 0 9990
2 49414 53.2196 336.8405 0001386 91.6803 268.4348 15.08831060247116
Epoch: May 4, 2026 • Age: 20 hours

当前状态

高度 558.4 km
速度 7.58 km/s
星下点 -51.10°S, 137.95°E
发射日期 Nov 13, 2021
运行时间 4.4 years
类型 internet

技术详情

分类 Payload
质量 290.00 kg
干质量 270.00 kg
总质量 290.00 kg
长度 0.20 m
直径 2.80 m
跨度 9.00 m
形状 Box + pan
制造商 SPXS
平台类型 Starlink
阶段状态 In Orbit
所有者/国家 SPXS/US

Most Searched